Find Starlink 33676

NORAD ID: 63403 Int'l Des: 2025-065 Owner: SPXS Country: US Constellation: starlink operational
LEOCIRCULAR

Current View

Loading 3D Globe...

About Starlink 33676

Starlink 33676 (NORAD 63403) is a starlink constellation satellite (v2 mini) launched Mar 31, 2025 by SPXS of US. It operates in LEO, CIRCULAR orbit with a mass of 575.00 kg.

About Starlink 33676

Description loading...

Upcoming Passes

Passes for default location (London). Set your location on the main map for personalized predictions.

Altitude History

Loading altitude history...

Two-Line Element Set

1 63403U 25065E 26167.95924463 .00018523 00000-0 68083-3 0 9995
2 63403 42.9977 266.3101 0002272 283.7019 76.3579 15.27585157 68027
Epoch: Jun 16, 2026 • Age: 29 hours

Current Status

Altitude 494.7 km
Velocity 7.62 km/s
Sub-Earth Point -42.55°S, 174.87°W
Launch Date Mar 31, 2025
Age 1.2 years
Type internet

Technical Details

Classification Payload
Mass 575.00 kg
Dry Mass 530.00 kg
Total Mass 575.00 kg
Length 0.30 m
Diameter 4.10 m
Span 29.00 m
Shape Box + pan
Manufacturer SPXS
Bus Type Starlink V2MO
Phase Status In Orbit
Owner/State SPXS/US

Most Searched